EDT,Max TemperatureF,Mean TemperatureF,Min TemperatureF,Max Dew PointF,MeanDew PointF,Min DewpointF,Max Humidity, Mean Humidity, Min Humidity, Max Sea Level PressureIn, Mean Sea Level PressureIn, Min Sea Level PressureIn, Max VisibilityMiles, Mean VisibilityMiles, Min VisibilityMiles, Max Wind SpeedMPH, Mean Wind SpeedMPH, Max Gust SpeedMPH,PrecipitationIn, CloudCover, Events, WindDirDegrees
2013-10-1,88,78,68,74,70,68,100,81,61,30.07,30.03,29.99,10,10,10,15,6,18,0.00,1,,69
2013-10-2,86,80,74,72,71,69,87,76,65,30.07,30.04,30.01,10,10,10,15,7,20,0.00,2,,69
2013-10-3,86,76,66,73,70,67,100,81,61,30.09,30.04,29.99,10,10,10,13,4,17,0.00,1,,84
2013-10-4,86,78,69,72,70,69,100,79,57,30.09,30.05,30.02,10,10,10,13,5,15,0.00,1,,66
2013-10-5,87,78,68,75,72,68,100,80,59,30.05,30.01,29.97,10,10,10,14,5,17,T,2,,56
2013-10-6,88,79,70,74,72,70,100,78,55,29.99,29.94,29.90,10,10,10,14,5,20,0.00,1,,120
2013-10-7,89,81,73,74,73,71,100,80,59,29.90,29.86,29.81,10,9,2,21,9,26,0.35,3,Rain-Thunderstorm,211
2013-10-8,91,82,72,76,72,67,100,74,47,29.94,29.88,29.83,10,10,9,17,9,28,0.00,1,,243
2013-10-9,84,77,70,75,73,70,100,85,69,30.01,29.95,29.90,10,9,3,22,11,29,0.07,4,Rain,325
2013-10-10,85,75,64,72,68,64,100,81,61,30.05,30.01,29.98,10,10,8,17,8,24,0.00,0,,354
2013-10-11,85,73,60,68,64,61,100,74,47,30.05,30.00,29.96,10,10,10,12,3,17,0.00,0,,40
2013-10-12,87,77,66,69,67,63,100,74,48,30.05,30.01,29.98,10,10,9,12,4,15,0.00,2,,26
2013-10-13,85,73,61,67,64,60,100,74,47,30.09,30.04,30.00,10,10,10,15,5,21,0.00,1,,2
2013-10-14,85,75,65,71,68,64,100,78,55,30.03,29.99,29.94,10,10,7,17,7,23,0.00,1,,350
2013-10-15,85,76,67,72,69,66,100,78,55,30.00,29.95,29.90,10,7,0,10,5,14,0.00,3,Fog,343
2013-10-16,85,76,67,73,70,67,100,83,65,29.98,29.94,29.91,10,10,9,13,3,16,T,1,,4
2013-10-17,86,77,67,73,71,68,100,81,61,29.99,29.95,29.92,10,10,8,10,4,14,0.00,1,,82
2013-10-18,87,77,66,73,70,67,100,81,61,30.01,29.96,29.93,10,10,9,14,5,18,0.00,1,,109
2013-10-19,89,78,67,74,72,68,100,80,59,29.98,29.94,29.89,10,10,10,17,8,22,0.00,2,,139
2013-10-20,88,80,72,77,75,72,100,83,65,29.98,29.94,29.89,10,10,4,12,5,15,0.09,5,Rain,136
2013-10-21,89,79,69,78,74,70,100,83,65,30.02,29.97,29.92,10,8,2,14,6,17,0.01,2,,155
2013-10-22,92,84,75,76,73,68,100,74,47,29.97,29.90,29.83,10,10,10,17,8,22,0.00,4,,217
2013-10-23,83,75,66,74,70,65,100,79,58,29.99,29.88,29.82,10,10,10,16,7,21,0.00,3,,315
2013-10-24,79,70,61,62,59,54,84,69,54,30.14,30.07,29.99,10,10,10,17,9,22,0.00,0,,342
2013-10-25,81,72,62,65,61,57,93,74,54,30.20,30.17,30.12,10,10,10,20,10,25,0.00,1,,350
2013-10-26,80,67,54,61,58,53,93,69,45,30.19,30.14,30.10,10,10,10,13,6,16,0.00,0,,11
2013-10-27,80,67,54,63,59,54,100,74,48,30.12,30.09,30.06,10,10,9,13,6,20,0.00,0,,347
2013-10-28,84,73,61,67,64,60,100,76,51,30.17,30.13,30.09,10,10,9,15,6,21,0.00,2,,19
2013-10-29,85,74,62,70,65,62,100,76,51,30.21,30.17,30.12,10,10,10,17,8,22,T,2,,32
2013-10-30,84,75,65,69,66,64,100,79,58,30.22,30.17,30.13,10,10,10,16,9,20,T,2,,78
2013-10-31,85,79,72,72,68,64,82,70,58,30.14,30.09,30.03,10,10,10,20,11,23,0.01,1,,121